Regional Weather Roundup
Issued by NWS

Home | Current Version | Previous Version | Graphics & Text | Print | Product List | Glossary On
Versions: 1 2 3 4 5 6 7 8 9 10 11 12 13 14 15 16 17 18 19 20 21 22 23 24 25 26 27 28 29 30 31 32 33 34 35 36 37 38 39 40 41 42 43 44 45 46 47 48 49 50
000
ASUS43 KMPX 180010
RWRMN
WEATHER ROUNDUP FOR MINNESOTA
NATIONAL WEATHER SERVICE TWIN CITIES/CHANHASSEN MN
600 PM CST SAT FEB 17 2018


NOTE: "FAIR" INDICATES FEW OR NO CLOUDS BELOW 12,000 FEET WITH NO
SIGNIFICANT WEATHER AND/OR OBSTRUCTIONS TO VISIBILITY. N/A MEANS
CURRENT SKY AND/OR WEATHER CONDITIONS ARE NOT AVAILABLE.

MNZ060>063-068>070-180100-
   Twin Cities Metro

CITY           SKY/WX    TMP DP  RH WIND       PRES   REMARKS
TWIN CITIES    FAIR      31  14  49 NW15      29.96R WCI  20
6HR MIN TEMP:  31; 6HR MAX TEMP:  38;

ST PAUL        FAIR      32  13  45 NW15G26   29.97R WCI  22
CRYSTAL        FAIR      30  10  43 NW16      29.95R WCI  19
BLAINE         CLEAR     30  12  47 NW20      29.95R WCI  18
LAKEVILLE      FAIR      28  16  59 W14G21    29.96R WCI  17
EDEN PRAIRIE   FAIR      31  12  45 NW10      29.96R WCI  22
6HR MIN TEMP:  30; 6HR MAX TEMP:  37;

SOUTH ST PAUL  FAIR      33  12  43 NW13G23   29.96R WCI  23
LAKE ELMO      FAIR      32  14  47 W14G21    29.96R WCI  22
$$
MNZ001>005-007-008-013>017-022>024-027-028-180100-
   Northwest Minnesota

CITY           SKY/WX    TMP DP  RH WIND       PRES   REMARKS
BEMIDJI        FAIR      14   2  59 W8        29.90R WCI   3
HALLOCK        FAIR      14   3  62 NW14      29.92S WCI  -1
WARROAD        FAIR      16   3  57 W12G20    29.87R WCI   3
THIEF RVR FALL CLOUDY    18   8  65 W16       29.92R WCI   3
CROOKSTON      MOCLDY    19  10  68 W9        29.95S WCI   9
FOSSTON        FAIR      14   3  62 W8        29.94R WCI   3
DETROIT LAKES  FAIR      19   5  53 W9        29.96S WCI   9
MOORHEAD       FAIR      19   9  63 NW6       30.00S WCI  11
PARK RAPIDS    FAIR      16   4  59 W14       29.92R WCI   2
MAHNOMEN       FAIR      15   8  71 W9        29.95R WCI   4
$$
MNZ006-009>011-018-025>026-180100-
   North Central Minnesota

CITY           SKY/WX    TMP DP  RH WIND       PRES   REMARKS
BAUDETTE       FAIR      15   1  53 W8G18     29.84R WCI   4
FLAG ISLAND    FAIR      12   0  57 W22G31    29.84R WCI  -7
INTL FALLS     FAIR      16   2  54 W12       29.83R WCI   3
6HR MIN TEMP:  16; 6HR MAX TEMP:  21;

WASKISH        FAIR      12   3  67 W9        29.88S WCI   0
BIG FORK       FAIR      16   5  62 W8        29.86R WCI   5
LONGVILLE      FAIR      19   3  49 W9        29.91R WCI   9
GRAND RAPIDS   FAIR      18   6  59 NW10      29.90R WCI   6
CRANE LAKE     FAIR      18   0  45 W7        29.83R WCI   8
ORR            FAIR      18   1  49 W13G21    29.81R WCI   4
COOK           CLOUDY    18   7  62 W15G24    29.84R WCI   3
WALKER         FAIR      17   3  53 W8        29.91R WCI   7
$$
MNZ012-019>021-037-180100-
   Northeast Minnesota

CITY           SKY/WX    TMP DP  RH WIND       PRES   REMARKS
DULUTH         FAIR      24  10  55 W12       29.84R WCI  13
6HR MIN TEMP:  23; 6HR MAX TEMP:  29;

ELY            FAIR      18   3  53 W13       29.79R WCI   4
HIBBING        FAIR      18   3  52 W8G17     29.84R WCI   8
EVELETH        FAIR     N/A N/A N/A W16       29.84R
DULUTH HARBOR  FAIR      27  14  59 W13       29.89R WCI  16
TWO HARBORS    FAIR      27  12  54 W9G17     29.82R WCI  17
G MARAIS ARPRT FAIR      18   3  53 W5        29.73R WCI  11
$$
MNZ029>031-032-039>041-046>048-054>057-064-180100-
   West Central Minnesota

CITY           SKY/WX    TMP DP  RH WIND       PRES   REMARKS
FERGUS FALLS   FAIR      19   9  63 NW9       30.00S WCI   9
WHEATON        CLEAR     25   5  42 NW6       30.03R WCI  18
MORRIS         CLEAR     25   3  39 NW9       29.99R WCI  15
ALEXANDRIA     FAIR      20   5  52 NW13      29.97R WCI   7
ELBOW LAKE     FAIR      21   8  55 NW8       29.99S WCI  12
WADENA         FAIR      18   3  53 W7        29.96R WCI   8
GLENWOOD       FAIR      21   7  53 NW10      29.98S WCI  10
APPLETON       CLEAR     28   5  37 NW8       30.01R WCI  20
BENSON         CLEAR     25   3  39 N9        30.02R WCI  15
ORTONVILLE     CLEAR     28   7  40 NW10      30.00R WCI  19
MADISON        CLEAR     30  12  47 NW10      30.01R WCI  21
WILLMAR        FAIR      27   9  46 NW10      30.01R WCI  17
$$
MNZ033>034-036-042>043-049>051-058-059-180100-
   Central Minnesota

CITY           SKY/WX    TMP DP  RH WIND       PRES   REMARKS
ST CLOUD       FAIR      26   8  46 NW20G26   29.97R WCI  12
6HR MIN TEMP:  26; 6HR MAX TEMP:  34;

SAUK CENTRE    FAIR      22   4  46 NW12      29.97S WCI  11
PAYNESVILLE    FAIR      26   8  48 NW7G16    29.98R WCI  18
AITKIN         FAIR      19   3  49 W6        29.91R WCI  11
PINE RIVER     FAIR      19   3  49 W6        29.96R WCI  11
BRAINERD       FAIR      22   6  50 W10       29.94R WCI  11
STAPLES        FAIR      16   3  57 W10       29.96R WCI   3
LONG PRAIRIE   FAIR      21   5  49 W10       29.97S WCI  10
LITTLE FALLS   FAIR      23  -4  30 W10       29.98R WCI  12
LITCHFIELD     FAIR      28   9  43 NW9       29.98R WCI  20
BUFFALO        FAIR      29  10  44 W10G17    29.99R WCI  20
MAPLE LAKE     FAIR      29  13  50 NW13G18   29.99R WCI  18
HUTCHINSON     FAIR      30  12  47 NW10      29.99R WCI  21
$$
MNZ037-044-045-052-053-180100-
   East Central Minnesota

CITY           SKY/WX    TMP DP  RH WIND       PRES   REMARKS
PRINCETON      FAIR      27  10  50 W9        29.96R WCI  17
MORA           FAIR      27  10  50 W14       29.95R WCI  15
CAMBRIDGE      FAIR      28  14  54 W12G20    29.96R WCI  18
RUSH CITY      FAIR      26  11  51 W10G18    29.94R WCI  16
MOOSE LAKE     FAIR      27  10  50 W7        29.89R WCI  19
HINCKLEY       FAIR      27  12  54 W9G17     29.93R WCI  17
CLOQUET        FAIR      23   7  50 W12       29.86R WCI  12
MCGREGOR       FAIR      25  10  54 W9        29.90R WCI  15
$$
MNZ071>073-080-081-089-090-097-098-180100-
   Southwest Minnesota

CITY           SKY/WX    TMP DP  RH WIND       PRES   REMARKS
MONTEVIDEO     CLEAR     28   9  43 N10       30.00R WCI  19
GRANITE FALLS  CLEAR     31  13  46 W10       30.03R WCI  23
CANBY          CLEAR     31  14  48 NW12      30.02R WCI  22
MARSHALL       CLEAR     30  17  58 W12       30.01R WCI  20
REDWOOD FALLS  CLEAR     31  13  47 NW12      30.00R WCI  22
OLIVIA         CLEAR     30  12  47 NW10G17   29.99R WCI  21
PIPESTONE      PTCLDY    28  19  69 W14       30.01R WCI  17
WINDOM         CLEAR     27  10  50 W12       30.00R WCI  16
WORTHINGTON    CLEAR     26  19  74 W10       30.03R WCI  16
JACKSON        CLEAR     30  19  64 W9        30.02R WCI  22
TRACY          PTCLDY    32  20  62 W6        30.00S WCI  26
SLAYTON        CLEAR     30  21  70 W13       30.01S WCI  20
$$
MNZ065>067-074>077-082>085-091>093-180100-
   South Central Minnesota

CITY           SKY/WX    TMP DP  RH WIND       PRES   REMARKS
MANKATO        FAIR      31  19  61 NW9       30.00R WCI  23
NEW ULM        CLEAR     30  16  55 NW17      29.99R WCI  18
ST JAMES       CLEAR     28  18  64 W12       30.02R WCI  18
FAIRMONT       CLEAR     29  22  75 SW7       30.02R WCI  22
GLENCOE        FAIR      31  16  52 W14G20    29.97R WCI  21
FARIBAULT      FAIR      30  18  59 W8        29.98R WCI  23
OWATONNA       FAIR      27  18  69 W7        29.97R WCI  19
WASECA         FAIR      25  19  80 W8        30.00R WCI  16
ALBERT LEA     FAIR      28  21  74 W7        30.00R WCI  21
$$
MNZ078>079-086>088-094>096-180100-
   Southeast Minnesota

CITY           SKY/WX    TMP DP  RH WIND       PRES   REMARKS
ROCHESTER      FAIR      22  20  92 SW12      29.96R WCI  10
6HR MIN TEMP:  22; 6HR MAX TEMP:  29; 6HR PCP: TRACE;

RED WING       FAIR      30  19  64 W5        29.95R WCI  25
STANTON        FAIR      31  18  58 W8        29.95R WCI  24
DODGE CENTER   FAIR      23  19  86 W8        29.97R WCI  14
WINONA         FAIR      30  23  74 SW6       29.97R WCI  24
AUSTIN         FAIR      28  21  74 W8        29.99R WCI  20
PRESTON        FAIR      25  21  84 SW7       29.98R WCI  18
$$
ABBREVIATIONS USED IN REMARKS
   TC - TEMPERATURES IN CELSIUS
  WCI - WIND CHILL INDEX
   HX - HEAT INDEX
  VSB - VISIBILITY
$$



USA.gov is the U.S. government's official web portal to all federal, state and local government web resources and services.